This is the latest recevied weather packets stored in our database for station/object KE2HEH. If no packets are shown the sender has not sent any weather packets the latest 1 day(s).
| Time | Temp. | Humidity | Pressure | Rain* | Wind** | Luminosity | Snow |
|---|---|---|---|---|---|---|---|
| 1778033042 | 13.89° C | 89% | 1011.8 hPa | 0 mm | - | 0 W/m² | - |
| 1778032739 | 13.33° C | 89% | 1011.8 hPa | 0 mm | - | 0 W/m² | - |
| 1778032133 | 13.33° C | 88% | 1011.8 hPa | 0 mm | - | 0 W/m² | - |
| 1778031830 | 13.33° C | 88% | 1011.5 hPa | 0 mm | - | 0 W/m² | - |
| 1778031224 | 13.33° C | 88% | 1011.6 hPa | 0 mm | - | 0 W/m² | - |
| 1778030920 | 13.33° C | 88% | 1011.7 hPa | 0 mm | - | 0 W/m² | - |
| 1778030011 | 13.89° C | 88% | 1011.6 hPa | 0 mm | - | 0 W/m² | - |
| 1778029709 | 13.89° C | 88% | 1011.4 hPa | 0 mm | - | 0 W/m² | - |
| 1778029103 | 13.33° C | 87% | 1011.7 hPa | 0 mm | - | 0 W/m² | - |
| 1778028496 | 13.89° C | 87% | 1011.5 hPa | 0 mm | - | 0 W/m² | - |
| 1778028194 | 13.89° C | 87% | 1011.5 hPa | 0 mm | - | 0 W/m² | - |
| 1778026979 | 13.89° C | 87% | 1011.1 hPa | 0 mm | - | 0 W/m² | - |
| 1778025767 | 14.44° C | 85% | 1011 hPa | 0 mm | - | 0 W/m² | - |
| 1778024858 | 14.44° C | 85% | 1010.3 hPa | 0 mm | - | 3 W/m² | - |
| 1778023041 | 14.44° C | 85% | 1010.1 hPa | 0 mm | - | 26 W/m² | - |
| 1778022134 | 14.44° C | 85% | 1010 hPa | 0 mm | - | 36 W/m² | - |
| 1778020010 | 14.44° C | 85% | 1009.8 hPa | 0 mm | - | 73 W/m² | - |
| 1778019100 | 14.44° C | 84% | 1009.6 hPa | 0 mm | - | 82 W/m² | - |
| 1778013650 | 14.44° C | 85% | 1009.5 hPa | 0 mm | - | 238 W/m² | - |
| 1778011528 | 14.44° C | 85% | 1009.7 hPa | 0 mm | - | 396 W/m² | - |
| 1778011225 | 14.44° C | 85% | 1009.4 hPa | 0 mm | - | 360 W/m² | - |
| 1778008801 | 14.44° C | 85% | 1010.2 hPa | 0 mm | - | 484 W/m² | - |
| 1778007284 | 14.44° C | 86% | 1010.5 hPa | 0 mm | - | 491 W/m² | - |
| 1778003948 | 14.44° C | 87% | 1011.3 hPa | 0 mm | - | 512 W/m² | - |
| 1778002431 | 14.44° C | 87% | 1011.4 hPa | 0 mm | - | 568 W/m² | - |
* Rain latest hour (hover to see other rain measurements)
** Current wind speed in m/s (hover to see current wind gust speed)